Tracking 27401 objects as of 3-Jun-2023
HD Live streaming from Space Station
objects crossing your sky now

STARLINK-1457

Track STARLINK-1457 now!
10-day predictions
STARLINK-1457 is classified as:


NORAD ID: 45674
Int'l Code: 2020-035T
Perigee: 553.8 km
Apogee: 555.2 km
Inclination: 53.1 °
Period: 95.6 minutes
Semi major axis: 6925 km
RCS: Unknown
Launch date: June 4, 2020
Source: United States (US)
Launch site: AIR FORCE EASTERN TEST RANGE (AFETR)
Your satellite tracking list
Your tracking list is empty




NASA's NSSDC Master Catalog

Two Line Element Set (TLE):
1 45674U 20035T   23153.74764066  .00022605  00000-0  15332-2 0  9991
2 45674  53.0535 284.9106 0001021  61.1416 298.9675 15.06360147166330
Source of the keplerian elements: AFSPC